Regional Weather Roundup
Issued by NWS Newport/Morehead, NC

Current Version | Previous Version | Text Only | Print | Product List | Glossary On
Versions: 1 2 3 4 5 6 7 8 9 10 11 12 13 14 15 16 17 18 19 20 21 22 23 24 25 26 27 28 29 30 31 32 33 34 35 36 37 38 39 40 41 42 43 44 45 46 47 48 49 50
000
ASUS42 KMHX 011425
RWRMHX
WEATHER ROUNDUP FOR EASTERN NORTH CAROLINA
NATIONAL WEATHER SERVICE NEWPORT/MOREHEAD CITY NC
1000 AM EDT TUE SEP 01 2015

NOTE: "FAIR" INDICATES FEW OR NO CLOUDS BELOW 12,000 FEET
WITH NO SIGNIFICANT WEATHER AND/OR OBSTRUCTIONS TO VISIBILITY

NCZ015>017-031-032-045>047-102-103-011500-
NORTH COAST

CITY           SKY/WX    TMP DP  RH WIND       PRES   REMARKS
EDENTON        CLOUDY    75  70  85 N7        30.10R
ELIZABETH CITY CLOUDY    77  71  82 N6        30.09R
KITTY HAWK     MOSUNNY   82  75  81 NE3       30.07R
MANTEO         CLOUDY    79  74  83 NE7       30.08R

$$

NCZ045>047-081-094-103-104-011500-
CENTRAL COAST

CITY           SKY/WX    TMP DP  RH WIND       PRES   REMARKS
FRISCO         MOSUNNY   81  74  79 VRB6      30.07R
SWANQUARTER      N/A     79 N/A N/A N3        30.06

$$

NCZ095-097-098-100-101-011500-
SOUTHERN COAST

CITY           SKY/WX    TMP DP  RH WIND       PRES   REMARKS
BEAUFORT       CLOUDY    79  74  84 NW6       30.09R
CEDAR ISLAND     N/A     79 N/A N/A NW8       30.12
JACKSONVILLE   CLOUDY    77  71  82 NW9       30.10R
PINEY ISLAND   CLOUDY   N/A N/A N/A NW9       30.10R
WILMINGTON     PTSUNNY   76  72  87 NW9       30.12R


$$

NCZ011>013-027>030-043-044-078>080-089-090>093-098-011500-
COASTAL PLAIN

CITY           SKY/WX    TMP DP  RH WIND       PRES   REMARKS
AHOSKIE        CLOUDY    72  70  91 CALM      30.11R
CLINTON        MOSUNNY   78  72  81 CALM      30.13R
ELIZABETHTOWN  SUNNY     77  70  78 CALM      30.13R
GOLDSBORO      CLOUDY    76  71  85 NW6       30.10R
GREENVILLE     CLOUDY    73  72  94 N5        30.13R
HAVELOCK       PTSUNNY   80  73  79 N8        30.11R
KENANSVILLE      N/A     76  70  82 NW5       30.13R
KINSTON        CLOUDY    75  72  88 CALM      30.12R
NEW BERN       CLOUDY    77  72  84 N6        30.11R
RICHLANDS      CLOUDY    75  68  78 W5        30.12R
ROCKY MOUNT    CLOUDY    75  70  84 NW5       30.11R
WASHINGTON     CLOUDY    74  71  91 CALM      30.11R
WHITEVILLE     SUNNY     76  71  83 CALM      30.12S

$$

AMZ130-135-150-152-154-156-158-170-250-252-270-ANZ085-086-088-633-658-670-011500-
MARINE OBSERVATIONS

STATION/POSITION TIME  TEMP    WIND        PRES    WAVE   SWELL
                       AIR SEA DIR/SP/G            HT/PER HT/PER
                 (UTC) (F)     (DEG/KT/KT) (MB)    (FT/S) (FT/S)
CHESAPEAKE LIGHT 1400   76     350/  9/  9 1019.3
64 E VA BEACH    1350   78 78   30/  8/ 10 1017.9    3/ 9   2/ 9
DUCK             1400   76 78   20/  7/  8 1017.8
2 E DUCK         1311      78                N/A     2/ 9
OREGON INLET     1400   79 79   20/  6/ 10 1018.4
13E OREGON INLT  1400      79                N/A     3/10   2/11
HATTERAS CG      1400   78 79   10/  8/  9 1018.2
DIAMOND BUOY     1350   79 84   10/  8/ 10 1018.1    3/ 6   3/ 6
CAPE LOOKOUT     1400   78     310/  5/  6 1018.9
BEAUFORT LAB     1400   78 78  290/  5/  8 1018.5
30 SE NEW RVR IN 1308   78 81  340/ 10/ 14 1018.9
30 SE NEW RVR IN 1325      81                N/A     3/ 7
27 SE WRIGHTSVLE 1400   74 81  330/ 12/ 16   N/A
5 SE WRIGHTSVLE  1308   75 81  330/  8/ 12 1019.0
225 S CAPE HAT   1350   84 84  240/ 10/ 12 1019.1    3/ 6   3/ 6
41 SE CHARLESTON 1350   81 83  360/  8/  8 1019.2    3/ 8   3/ 8

$$



USA.gov is the U.S. government's official web portal to all federal, state and local government web resources and services.